Weather History for K06D - February, 2013

Change the Weather History Date:

Saturday, February 2, 2013

  Actual Average Record
Temperature  
Mean Temperature 2 °F -  
Max Temperature 14 °F - - ()
Min Temperature -11 °F - - ()
Degree Days  
Heating Degree Days 64    
Moisture  
Dew Point -4 °F    
Average Humidity 82    
Maximum Humidity 92    
Minimum Humidity 72    
Precipitation  
Precipitation 0.19 in - - ()
Sea Level Pressure  
Sea Level Pressure 29.97 in    
Wind  
Wind Speed 11 mph (West)    
Max Wind Speed 30 mph    
Max Gust Speed 34 mph    
Visibility 7 miles    
Events Rain , Snow    
T = Trace of Precipitation, MM = Missing Value Source: NWS Daily Summary

Daily Weather History Graph

Daily Weather History Graph

Search for Another Location

Airport or City:

Trip Planner

Search our weather history database for the weather conditions in past years. The results will help you decide how hot, cold, wet, or windy it might be!

Date:

Astronomy

Feb. 02, 2013 Rise Set
Actual Time 8:06 AM CST 5:38 PM CST
Civil Twilight 7:33 AM CST 6:12 PM CST
Nautical Twilight 6:55 AM CST 6:49 PM CST
Astronomical Twilight 6:18 AM CST 7:26 PM CST
Moon 12:23 AM CST (2/2) 10:38 AM CST (2/2)
Length of Visible Light 10h 39m
Length of Day
9h 31m
Waning Gibbous, 59% of the Moon is Illuminated
Feb 2
Waning Gibbous
Feb 3
Last Quarter
Feb 10
New
Feb 17
First Quarter
Feb 25
Full

Hourly Weather History & Observations

Time (CST) Temp. Windchill Dew Point Humidity Pressure Visibility Wind Dir Wind Speed Gust Speed Precip Events Conditions
12:15 AM -7.6 °F -24.6 °F -13.0 °F 77% 30.05 in 10.0 mi North 9.2 mph - N/A   Partly Cloudy
12:35 AM -9.4 °F -24.3 °F -13.0 °F 84% 30.06 in 10.0 mi NNW 6.9 mph - N/A   Clear
12:55 AM -9.4 °F -20.9 °F -13.0 °F 84% 30.06 in 10.0 mi NNW 4.6 mph - N/A   Clear
1:15 AM -11.2 °F -23.0 °F -16.6 °F 77% 30.06 in 10.0 mi NNW 4.6 mph - N/A   Clear
1:35 AM -11.2 °F -23.0 °F -16.6 °F 77% 30.07 in 10.0 mi NW 4.6 mph - N/A   Clear
1:55 AM -11.2 °F -23.0 °F -14.8 °F 84% 30.06 in 10.0 mi NW 4.6 mph - N/A   Scattered Clouds
2:15 AM -11.2 °F -20.6 °F -16.6 °F 77% 30.07 in 10.0 mi West 3.5 mph - N/A   Mostly Cloudy
2:35 AM -11.2 °F -24.8 °F -14.8 °F 84% 30.07 in 10.0 mi West 5.8 mph - N/A   Mostly Cloudy
2:55 AM -11.2 °F -23.0 °F -14.8 °F 84% 30.07 in 10.0 mi WSW 4.6 mph - N/A   Overcast
3:15 AM -9.4 °F -18.6 °F -13.0 °F 84% 30.07 in 10.0 mi West 3.5 mph - N/A   Overcast
3:35 AM -11.2 °F -20.6 °F -16.6 °F 77% 30.05 in 10.0 mi West 3.5 mph - N/A   Overcast
3:55 AM -11.2 °F -23.0 °F -16.6 °F 77% 30.05 in 10.0 mi West 4.6 mph - N/A   Overcast
4:15 AM -11.2 °F - -14.8 °F 84% 30.03 in 10.0 mi Calm Calm - N/A   Overcast
4:35 AM -9.4 °F -20.9 °F -13.0 °F 84% 30.03 in 10.0 mi SW 4.6 mph - N/A   Overcast
4:55 AM -7.6 °F -23.4 °F -11.2 °F 84% 30.03 in 10.0 mi SW 8.1 mph - N/A   Overcast
5:15 AM -5.8 °F -19.9 °F -11.2 °F 77% 30.03 in 10.0 mi SSW 6.9 mph - N/A   Overcast
5:35 AM -5.8 °F -22.4 °F -11.2 °F 77% 30.02 in 10.0 mi SSW 9.2 mph - N/A   Overcast
6:15 AM -4.0 °F -21.2 °F -9.4 °F 78% 30.01 in 10.0 mi SW 10.4 mph - N/A   Overcast
6:35 AM -4.0 °F -23.0 °F -9.4 °F 78% 29.99 in 10.0 mi SW 12.7 mph - N/A   Overcast
6:55 AM -4.0 °F -23.0 °F -9.4 °F 78% 29.98 in 10.0 mi SW 12.7 mph - N/A   Overcast
7:15 AM -4.0 °F -22.1 °F -9.4 °F 78% 29.97 in 10.0 mi SSW 11.5 mph - N/A   Overcast
7:35 AM -4.0 °F -21.2 °F -7.6 °F 85% 29.96 in 10.0 mi SSW 10.4 mph - N/A   Overcast
7:55 AM -4.0 °F -22.1 °F -7.6 °F 85% 29.95 in 10.0 mi SSW 11.5 mph - N/A   Overcast
8:15 AM -2.2 °F -19.9 °F -7.6 °F 78% 29.94 in 10.0 mi SSW 11.5 mph - N/A   Mostly Cloudy
8:35 AM -2.2 °F -21.5 °F -5.8 °F 85% 29.91 in 10.0 mi SSW 13.8 mph - N/A   Overcast
8:55 AM -2.2 °F -22.2 °F -5.8 °F 85% 29.90 in 10.0 mi SSW 15.0 mph - N/A   Overcast
9:15 AM -0.4 °F -19.9 °F -4.0 °F 85% 29.89 in 6.0 mi SSW 15.0 mph - N/A   Overcast
9:35 AM -0.4 °F -19.2 °F -4.0 °F 85% 29.88 in 1.0 mi SSW 13.8 mph 18.4 mph N/A Snow Light Snow
9:55 AM -0.4 °F -19.9 °F -4.0 °F 85% 29.88 in 0.5 mi SSW 15.0 mph 20.7 mph 0.02 in Snow Snow
10:15 AM -0.4 °F -19.2 °F -4.0 °F 85% 29.88 in 0.5 mi SSW 13.8 mph - N/A Snow Snow
10:35 AM -0.4 °F -21.2 °F -4.0 °F 85% 29.86 in 1.2 mi SW 17.3 mph - N/A Snow Light Snow
10:55 AM -0.4 °F -19.9 °F -2.2 °F 92% 29.87 in 4.0 mi SSW 15.0 mph 19.6 mph N/A   Overcast
11:15 AM 1.4 °F -14.5 °F -2.2 °F 85% 29.88 in 10.0 mi SW 10.4 mph - N/A   Overcast
11:35 AM 1.4 °F -14.5 °F -2.2 °F 85% 29.87 in 5.0 mi SW 10.4 mph - N/A Snow Light Snow
11:55 AM 1.4 °F -16.1 °F -0.4 °F 92% 29.86 in 1.2 mi SW 12.7 mph - N/A Snow Light Snow
12:15 PM 3.2 °F -13.1 °F -0.4 °F 85% 29.86 in 8.0 mi SW 11.5 mph - N/A Snow Light Snow
12:35 PM 3.2 °F -13.9 °F -0.4 °F 85% 29.86 in 10.0 mi SW 12.7 mph - N/A   Mostly Cloudy
12:55 PM 5.0 °F -8.1 °F 1.4 °F 85% 29.86 in 10.0 mi SW 8.1 mph - N/A   Mostly Cloudy
1:15 PM 6.8 °F -2.0 °F 1.4 °F 79% 29.85 in 10.0 mi WSW 4.6 mph - N/A   Mostly Cloudy
1:35 PM 14.0 °F -3.4 °F 8.6 °F 79% 29.85 in 7.0 mi NNW 19.6 mph 23.0 mph N/A Snow Light Snow
1:55 PM 10.4 °F -10.7 °F 8.6 °F 92% 29.85 in 1.0 mi NNW 26.5 mph - 0.01 in Snow Light Snow
2:15 PM 10.4 °F -10.3 °F 6.8 °F 85% 29.86 in 1.0 mi NNW 25.3 mph - 0.01 in Snow Light Snow
2:35 PM 8.6 °F -12.3 °F 6.8 °F 92% 29.87 in 1.0 mi NNW 24.2 mph - 0.04 in Snow Light Snow
2:55 PM 8.6 °F -12.3 °F 5.0 °F 85% 29.88 in 1.0 mi NW 24.2 mph - 0.06 in Snow Light Snow
3:15 PM 8.6 °F -12.7 °F 5.0 °F 85% 29.90 in 2.0 mi NNW 25.3 mph 29.9 mph N/A Snow Light Snow
3:35 PM 6.8 °F -15.1 °F 5.0 °F 92% 29.92 in 0.8 mi NNW 25.3 mph 33.4 mph 0.01 in Snow Light Snow
3:55 PM 8.6 °F -14.1 °F 5.0 °F 85% 29.93 in 0.5 mi NNW 29.9 mph 34.5 mph 0.02 in Snow Snow
4:15 PM 6.8 °F -16.6 °F 5.0 °F 92% 29.94 in 0.8 mi NNW 29.9 mph 34.5 mph 0.01 in Snow Light Snow
4:35 PM 6.8 °F -12.9 °F 5.0 °F 92% 29.96 in 0.8 mi NNW 19.6 mph - 0.05 in Snow Light Snow
4:55 PM 6.8 °F -14.7 °F 3.2 °F 85% 29.97 in 1.0 mi NNW 24.2 mph 34.5 mph 0.08 in Snow Light Snow
5:15 PM 5.0 °F -14.2 °F 1.4 °F 85% 29.98 in 4.0 mi NW 17.3 mph 29.9 mph N/A Snow Light Snow
5:35 PM 5.0 °F -14.7 °F 1.4 °F 85% 29.99 in 7.0 mi NW 18.4 mph - N/A Rain Light Freezing Rain
5:55 PM 5.0 °F -14.2 °F 1.4 °F 85% 29.99 in 7.0 mi NW 17.3 mph 23.0 mph N/A Rain Light Freezing Rain
6:15 PM 5.0 °F -16.2 °F -0.4 °F 78% 30.00 in 8.0 mi NW 21.9 mph 26.5 mph N/A Rain Light Freezing Rain
6:35 PM 5.0 °F -18.3 °F -0.4 °F 78% 29.99 in 1.8 mi NW 27.6 mph 34.5 mph N/A Snow Light Snow
6:55 PM 5.0 °F -17.1 °F -0.4 °F 78% 30.00 in 5.0 mi NW 24.2 mph 28.8 mph N/A Rain Light Freezing Rain
7:15 PM 5.0 °F -14.2 °F 1.4 °F 85% 30.01 in 8.0 mi NW 17.3 mph - N/A   Overcast
7:35 PM 6.8 °F -11.8 °F 1.4 °F 79% 30.01 in 10.0 mi NW 17.3 mph - N/A   Overcast
7:55 PM 6.8 °F -9.3 °F 1.4 °F 79% 30.02 in 10.0 mi WNW 12.7 mph - N/A   Overcast
8:15 PM 6.8 °F -7.8 °F 1.4 °F 79% 30.01 in 10.0 mi WNW 10.4 mph - N/A   Overcast
8:35 PM 6.8 °F -8.6 °F -0.4 °F 72% 30.02 in 10.0 mi WNW 11.5 mph - N/A   Mostly Cloudy
8:55 PM 6.8 °F -10.7 °F -0.4 °F 72% 30.01 in 10.0 mi WNW 15.0 mph 18.4 mph N/A   Mostly Cloudy
9:15 PM 5.0 °F -12.3 °F -0.4 °F 78% 30.01 in 10.0 mi WNW 13.8 mph - N/A   Overcast
9:35 PM 6.8 °F -8.6 °F -0.4 °F 72% 29.99 in 10.0 mi WNW 11.5 mph - N/A   Overcast
9:55 PM 6.8 °F -6.9 °F -0.4 °F 72% 29.99 in 10.0 mi WNW 9.2 mph - N/A   Overcast
10:15 PM 6.8 °F -5.9 °F -0.4 °F 72% 30.00 in 10.0 mi WNW 8.1 mph - N/A   Overcast
10:35 PM 6.8 °F -10.7 °F 1.4 °F 79% 30.01 in 10.0 mi NW 15.0 mph - N/A   Overcast
10:55 PM 8.6 °F -9.5 °F 1.4 °F 73% 30.00 in 10.0 mi NW 17.3 mph 21.9 mph N/A   Overcast
11:15 PM 8.6 °F -13.8 °F 3.2 °F 79% 30.00 in 6.0 mi NW 28.8 mph - N/A Snow Light Snow
11:35 PM 6.8 °F -15.1 °F 3.2 °F 85% 29.99 in 2.5 mi NW 25.3 mph 34.5 mph N/A Snow Light Snow
11:55 PM 6.8 °F -14.3 °F 1.4 °F 79% 29.99 in 5.0 mi NW 23.0 mph - N/A Snow Light Snow